Regional Weather Roundup
Issued by NWS

Home | Current Version | Previous Version | Text Only | Print | Product List | Glossary On
Versions: 1 2 3 4 5 6 7 8 9 10 11 12 13 14 15 16 17 18 19 20 21 22 23 24 25 26 27 28 29 30 31 32 33 34 35 36 37 38 39 40 41 42 43 44 45 46 47 48 49 50
000
ASUS43 KDTX 191910
RWRMI
MICHIGAN HOURLY REGIONAL WEATHER ROUNDUP
NATIONAL WEATHER SERVICE DETROIT/PONTIAC MI
300 PM EDT THU APR 19 2018

NOTE: "FAIR" INDICATES FEW OR NO CLOUDS BELOW 12,000 FEET WITH NO
SIGNIFICANT WEATHER AND/OR OBSTRUCTION TO VISIBILITY.

MIZ047>049-052>055-059>063-066>070-074>076-081>083-192000-
SOUTHEAST LOWER MICHIGAN

CITY           SKY/WX    TMP DP  RH WIND       PRES   REMARKS
ADRIAN         FAIR      51  23  33 N13G30    30.18R
ALMA           FAIR      49  25  38 NW16G23   30.21R
ANN ARBOR      FAIR      52  22  30 NW16G24   30.15S
BAD AXE        FAIR      41  25  53 N14G23    30.18R
CARO           FAIR      46  22  39 NW17G23   30.17R
DETROIT        FAIR      52  23  32 NW17      30.15R
FLINT          FAIR      49  25  39 NW16      30.16R
GROSSE ILE     FAIR      51  24  34 NW13      30.14R
HILLSDALE      FAIR      52  21  30 NW16G25   30.18S
HOWELL         FAIR      49  25  39 NW17G25   30.17R

CITY           SKY/WX    TMP DP  RH WIND       PRES   REMARKS
JACKSON        FAIR      52  20  28 W18G26    30.18R
LAMBERTVILLE   FAIR      53  23  30 NW8G18    30.16S
LANSING        FAIR      51  21  30 NW16G26   30.20R
LAPEER         FAIR      47  21  36 N16G22    30.15R
MASON          FAIR      53  17  24 NW13G22   30.18S
MONROE         FAIR      51  22  31 NW20G25   30.14S
MT. CLEMENS    MOSUNNY   47  27  44 N18G25    30.12R
PONTIAC        FAIR      49  21  33 NW17      30.13R
PORT HOPE        N/A     38  26  62 N9        30.17R WCI  31
PORT HURON     PTSUNNY   39  27  60 NE15      30.17R WCI  31
TRI CITIES     FAIR      49  26  41 NW18G26   30.18R
MIDLAND        FAIR      47  25  41 N15G24    30.18R
TROY           FAIR      50  19  29 NW14G23   30.15S
SAGINAW HB     FAIR      50  25  37 NW20G28   30.17R
$$
MIZ043>046-050>051-056>058-064>065-071>073-077>080-192000-
SOUTHWEST LOWER MICHIGAN

CITY           SKY/WX    TMP DP  RH WIND       PRES   REMARKS
BATTLE CREEK   FAIR      52  27  38 NW13G22   30.22R
BENTON HARBOR  FAIR      41  31  67 NW12G22   30.33R
BIG RAPIDS     FAIR      46   9  21 NW12G22   30.24R
COLDWATER      FAIR      52  25  34 NW20      30.22R
FREMONT        FAIR      47  17  31 NW10G20   30.27R
HOLLAND        FAIR      45  33  63 NW17G24   30.29R
GRAND RAPIDS   FAIR      52  28  39 NW12G21   30.23R
IONIA          FAIR      51  18  26 NW18      30.21R
KALAMAZOO      FAIR      53  25  33 NW13G21   30.25R
LUDINGTON      FAIR      40  27  59 N14G23    30.32R WCI  33
MARSHALL       FAIR      53  22  30 NW8G16    30.20S
MOUNT PLEASANT FAIR      48  22  35 NW14G24   30.21R
MUSKEGON       FAIR      46  30  53 NW10      30.29R
SOUTH HAVEN    FAIR      41  32  70 NW18G25   30.32R
$$
MIZ016>042-192000-
NORTHERN LOWER MICHIGAN

CITY           SKY/WX    TMP DP  RH WIND       PRES   REMARKS
ALPENA         FAIR      40  20  44 NW16G25   30.19R WCI  31
BEAVER ISLAND  FAIR      40  23  50 NW14G21   30.27R WCI  33
BELLAIRE       FAIR      42  24  50 W7        30.26R
CADILLAC       FAIR      40  18  40 N9G17     30.23R WCI  34
CHARLEVOIX     FAIR      39  27  62 NW7       30.29R WCI  34
FRANKFORT      FAIR      42  25  51 NW7       30.32R
GAYLORD        FAIR      40  20  44 VRB7G20   30.19R
GRAYLING       FAIR      40  17  40 N20G28    30.19R WCI  31
HARBOR SPRINGS FAIR      43  15  32 NW10G16   30.24R
HOUGHTON LAKE  FAIR      43  18  36 NW10G23   30.19R
MANISTEE       FAIR      40  26  57 NW10      30.33R WCI  33
OSCODA         FAIR      41  16  35 N20G26    30.17R
PELLSTON       FAIR      41  19  41 NW21      30.23R
ROGERS CITY    FAIR      40  19  43 NW13G24   30.20S WCI  32
TRAVERSE CITY  FAIR      41  25  53 NW13      30.28R
$$
MIZ007>008-015-192000-
EASTERN UPPER MICHIGAN

CITY           SKY/WX    TMP DP  RH WIND       PRES   REMARKS
KINROSS        FAIR      36  19  50 NW20G30   30.22R WCI  25
MACKINAC ISLAN FAIR      45  16  31 NW13      30.22R
NEWBERRY       FAIR      38  17  41 NW13G20   30.26R WCI  30
S. S. MARIE    FAIR      38  23  55 NW17G26   30.20S WCI  28
MUNISING         N/A     36  27  69 NW15      30.36R WCI  27
$$
MIZ004>006-011>014-085-192000-
CENTRAL UPPER MICHIGAN

CITY           SKY/WX    TMP DP  RH WIND       PRES   REMARKS
MANISTIQUE     FAIR      41  14  34 N15G22    30.29R
ESCANABA       FAIR      49   6  17 NW10G18   30.32R
MENOMINEE      FAIR      52  10  18 N8        30.33R
SAWYER-GWINN   SUNNY     41  10  28 NE10      30.33S
$$
MIZ001>003-009>011-084-192000-
WESTERN UPPER MICHIGAN

CITY           SKY/WX    TMP DP  RH WIND       PRES   REMARKS
IRON MOUNTAIN  FAIR      50  10  20 N17G24    30.31R
HOUGHTON       FAIR      41  15  35 W14       30.37R
COPPER HARBOR    N/A     40  18  41 N12       30.36S WCI  33
IRONWOOD       FAIR      44  13  28 W10       30.42R
$$

ABBREVIATIONS USED IN REMARKS
   TC - TEMPERATURE IN CELSIUS
  WCI - WIND CHILL INDEX
   HX - HEAT INDEX
  VSB - VISIBILITY





USA.gov is the U.S. government's official web portal to all federal, state and local government web resources and services.